Cloud_Cover
5 5 4 96 94 100 100 100 100 100 100 100 100 100 100 100 100 100 100 97 100 100 100 100 8 23 11 7 46 12 7 5 5 5 5 6 5 5 5 50 38 100 100 96 99 100 100 100 100 83 20 100 100 100
38 5 3 44 100 100 100 100 100 100 100 100 100 100 100 100 100 100 100 100 100 100 100 100 93 5 5 45 48 5 5 4 5 5 9 26 5 14 5 9 79 68 26 82 100 99 52 64 100 100 94 100 100 100
44 4 5 100 100 100 100 100 100 100 100 100 100 100 100 100 100 100 100 100 100 100 100 100 88 15 5 48 19 5 5 5 5 5 5 6 5 5 5 5 2 5 5 5 4 27 70 100 100 100 100 100 100 100
65 2 5 100 100 100 100 100 100 100 100 100 100 100 100 100 100 100 100 100 100 100 100 100 99 48 64 51 5 5 14 5 5 4 5 6 5 5 5 5 5 1 4 2 4 10 7 34 98 100 92 94 100 100
5 16 100 100 100 100 100 100 100 100 100 100 100 100 100 100 100 100 100 100 100 99 100 100 95 32 99 62 5 24 46 5 5 9 8 5 5 12 5 5 5 0 4 2 5 4 24 51 56 98 99 100 82 97
5 14 91 91 100 100 100 100 100 100 100 100 100 100 100 100 100 100 100 100 100 100 100 100 100 15 83 65 5 24 100 30 19 6 5 18 86 18 53 54 4 5 5 5 5 72 65 6 100 72 100 100 100 100
5 99 100 87 100 100 100 100 100 100 100 100 100 100 100 100 100 100 100 100 100 100 100 92 90 18 16 63 91 100 100 98 78 32 17 70 99 30 78 63 5 33 59 76 100 92 11 67 5 5 98 100 100 100
64 100 100 100 100 100 100 100 100 100 100 100 100 100 100 100 100 100 95 100 100 100 100 99 100 48 80 74 89 100 100 100 95 79 87 91 67 49 59 3 5 21 100 97 85 89 72 6 40 8 75 100 100 100
100 100 100 100 100 100 100 100 100 100 100 100 100 100 100 100 100 100 100 100 100 100 100 100 99 100 84 96 100 100 100 100 87 73 98 75 29 55 3 5 84 100 100 100 98 36 46 92 27 78 100 100 100 100
100 100 100 100 100 100 100 100 100 100 100 100 100 100 100 100 100 100 100 97 100 100 100 100 100 100 100 100 100 100 93 100 96 96 92 95 10 0 4 10 69 100 100 100 100 32 5 38 94 100 100 100 100 100
100 100 100 100 100 100 100 100 100 100 100 100 100 100 100 100 100 100 100 100 100 100 98 90 100 100 95 81 93 88 98 94 100 93 94 95 61 7 15 79 100 100 100 100 100 100 43 92 98 100 100 100 100 100
100 100 100 100 100 100 100 100 100 100 100 100 100 100 100 100 100 100 100 100 100 100 100 100 100 35 60 96 100 100 88 94 100 90 97 100 12 6 80 100 100 100 100 100 100 100 100 100 100 100 100 100 100 100
100 100 100 100 100 100 100 100 100 100 100 100 100 100 100 100 100 100 100 100 100 100 100 100 40 90 95 100 100 100 99 94 98 100 100 24 5 24 80 100 100 100 100 100 100 100 100 100 100 100 100 100 100 100
100 100 100 100 100 100 100 100 100 100 100 100 100 100 100 100 100 100 100 100 100 100 100 100 41 92 100 100 100 100 100 96 100 91 14 29 5 5 5 88 100 99 100 100 100 100 100 100 100 100 100 100 100 100
100 100 100 100 100 100 100 100 100 100 100 100 100 100 100 100 100 100 100 100 100 100 100 100 98 100 100 100 100 100 98 89 64 29 50 32 5 5 6 70 100 100 100 100 100 100 100 100 100 98 100 100 100 100
100 100 100 100 100 100 100 100 100 100 100 100 100 100 100 100 100 100 100 100 100 100 100 100 100 100 100 100 99 96 73 19 8 7 13 52 7 5 5 84 100 100 100 100 89 41 67 86 97 100 99 100 100 100
100 100 100 100 100 100 100 100 100 100 100 100 100 100 100 100 100 100 100 100 100 100 100 100 100 100 100 98 85 96 57 5 82 48 31 97 71 5 5 24 90 100 100 100 100 100 77 56 99 100 100 100 100 100
100 100 100 100 100 100 100 100 100 100 100 100 100 100 100 100 100 100 100 100 100 100 100 100 100 100 100 100 66 35 65 100 64 20 23 5 5 5 5 5 93 100 100 100 100 100 100 100 100 100 100 100 100 100
100 100 100 100 100 100 100 100 100 100 100 100 100 100 100 100 100 100 100 100 100 100 100 100 100 100 100 68 46 100 95 99 20 5 5 5 5 5 5 4 10 69 98 91 92 100 100 100 100 100 100 100 100 100
100 100 100 100 100 100 100 100 100 100 100 100 100 100 100 100 100 100 100 100 100 100 100 100 100 100 58 66 73 58 56 8 5 5 5 5 5 19 5 7 5 5 5 9 33 73 75 83 54 96 100 100 100 100
100 100 100 100 100 100 100 100 100 100 100 100 100 100 100 100 100 100 100 100 100 100 100 100 100 54 22 62 98 50 20 5 5 5 5 6 5 11 5 7 46 6 5 5 52 12 5 81 98 100 100 100 100 100
100 100 100 100 100 100 100 100 100 100 100 100 100 100 100 100 100 100 100 100 100 100 100 96 100 89 47 31 22 34 6 5 5 5 5 5 5 5 6 5 5 5 20 36 36 6 9 66 100 100 100 100 100 100
100 100 100 100 100 100 100 100 100 100 100 100 100 100 100 100 100 100 100 100 100 100 40 48 79 37 8 16 5 9 5 10 6 5 5 5 5 12 5 25 34 6 5 32 23 6 26 98 100 100 100 100 100 100
100 100 100 100 100 100 100 100 100 100 100 100 100 100 100 100 100 100 100 100 100 66 8 10 40 27 43 10 9 19 5 8 31 65 58 52 16 5 5 5 5 13 15 26 43 23 100 100 100 100 100 100 100 100
100 100 100 100 100 100 100 100 100 100 100 100 100 100 100 100 100 100 100 27 66 59 59 69 65 63 54 83 49 14 10 22 45 13 30 23 25 6 5 5 19 73 24 62 100 100 100 100 100 100 100 100 100 100
100 100 100 100 100 100 100 100 100 100 100 100 100 100 100 97 100 52 11 9 31 72 76 66 63 70 57 58 7 11 5 52 12 27 13 24 5 5 5 5 5 37 98 100 100 100 100 100 100 100 100 100 100 100
100 100 100 100 100 100 100 100 100 100 100 100 100 100 100 100 97 84 88 94 87 94 96 100 92 76 72 42 46 30 58 65 6 17 32 41 57 49 16 52 99 98 100 100 100 100 100 100 100 100 100 100 100 100
100 100 100 100 100 100 100 100 100 100 100 100 100 100 100 100 100 87 99 100 100 100 100 100 100 100 92 54 45 20 9 26 34 51 44 43 67 68 6 21 61 90 99 100 100 100 100 100 100 100 100 100 100 100
100 100 100 100 100 100 100 100 100 100 100 100 100 100 100 100 100 100 100 100 100 100 99 65 42 71 53 60 64 63 58 27 5 5 5 5 17 20 57 27 52 45 60 50 82 94 100 99 100 100 100 100 100 100
100 100 100 100 100 100 100 100 100 100 100 100 100 100 100 100 100 100 100 98 89 75 77 69 46 9 20 40 16 8 54 65 55 5 5 5 5 36 56 38 42 57 45 67 76 69 70 75 58 74 78 73 55 92
100 100 100 100 100 100 100 100 100 100 100 100 100 100 100 100 100 100 92 97 93 87 63 19 9 30 5 5 5 5 5 19 45 40 73 75 68 62 39 7 5 46 69 97 100 95 88 80 72 76 84 91 68 95
100 100 100 100 100 100 100 100 100 99 100 100 100 100 100 100 100 100 100 92 91 86 25 36 7 35 16 34 44 57 45 65 61 51 48 78 70 32 7 45 63 86 100 99 100 100 100 100 99 99 100 94 75 72
100 100 100 100 100 100 100 100 100 100 100 100 100 100 99 98 94 65 70 69 56 50 46 47 27 42 37 20 6 58 39 43 70 89 93 91 100 100 100 87 99 100 100 100 98 88 100 100 97 89 86 82 78 84